Tracking 20712 objects as of 29-May-2020
HD Live streaming from Space Station
objects crossing your sky now

IRIDIUM 33 DEB

Track IRIDIUM 33 DEB now!
10-day predictions


NORAD ID: 34079
Int'l Code: 1997-051CN
Perigee: 727.5 km
Apogee: 742.2 km
Inclination: 86.4 °
Period: 99.4 minutes
Semi major axis: 7105 km
RCS: 0.0496 m2 (small)
Launch date: September 14, 1997
Source: United States (US)
Launch site: TYURATAM MISSILE AND SPACE COMPLEX (TTMTR)

Note: This is SATELLITE DEBRIS
aabbcc
Your satellite tracking list
Your tracking list is empty




NASA's NSSDC Master Catalog

Two Line Element Set (TLE):
1 34079U 97051CN  20150.09457796  .00000691  00000-0  17548-3 0  9994
2 34079  86.3923 170.3976 0010336 359.0555  59.9843 14.49355121594948
Source of the keplerian elements: AFSPC